Valley City, ND (58072)

7:38 AM CST on February 13, 2016 (GMT -0600)
Valley City | | Change Station
CLOSE
Current Station
Airport
Location: Valley City,
Elevation: 1401 ft
Nearby Weather Stations
Active Advisory: Winter Weather Advisory

Elev 1401 ft 46.94 °N, 98.02 °W | Updated 3 minutes ago

Partly Cloudy
Partly Cloudy
-4 °F
Feels Like -21 °F
N
10
Wind Variable Wind from SSE

Today
High -- | Low -- °F
--% Chance of Precip.
Yesterday
High -- | Low -- °F
Precip. -- in
Pressure 30.47 in
Visibility 10.0 miles
Clouds Scattered Clouds 11000 ft
Windchill -21 °F
Dew Point -9 °F
Humidity 78%
Rainfall 0.00 in
Snow Depth Not available.
7:40 AM 5:52 PM
Waxing Crescent, 30% visible
METAR KBAC 131335Z AUTO 16009KT 10SM SCT110 M20/M23 A3047 RMK AO2
Pressure 30.47 in
Visibility 10.0 miles
Clouds Scattered Clouds 11000 ft
Windchill -21 °F
Dew Point -9 °F
Humidity 78%
Rainfall 0.00 in
Snow Depth Not available.
7:40 AM 5:52 PM
Waxing Crescent, 30% visible
METAR KBAC 131335Z AUTO 16009KT 10SM SCT110 M20/M23 A3047 RMK AO2

10-Day Weather Forecast

Almanac

Astronomy

Feb. 13, 2016 Rise Set
Actual Time
Civil Twilight
Nautical Twilight
Astronomical Twilight
Moon
Length of Visible Light
Length of Day
Tomorrow will be .
, % of the Moon is Illuminated

Today's Extremes

State Highs State Lows

Community

WunderPhotos

Upload Photos

1,892,547 photos uploaded!

WunderBlog® & News

Nearby

Air Quality

  Air Quality AQ Index Pollutant
Not available.

Snow Depth

Station Depth Elevation

Earthquake Activity

City Distance Mag. Time & Date
Minimum magnitude displayed is 2.5.

Coastal Water Temperatures

Place Temperature

Stations

Nearby Weather Stations

Station Location Temp. Windchill Dew Point Humidity Wind Precip. Elev Updated Type
                   

Watches & Warnings

Winter Weather Advisory
Issued: 3:33 AM CST Feb. 13, 2016 – National Weather Service

... Winter Weather Advisory in effect from 6 PM this evening to
noon CST Sunday...

The National Weather Service in Grand Forks has issued a Winter
Weather Advisory for snow and reduced visibility... which is in
effect from 6 PM this evening to noon CST Sunday.

* Timing... expect snow to develop around 6 PM and then diminish
around noon Sunday.

* Precipitation rates... the heaviest snowfall rates will occur
between midnight and 6 am Sunday.

* Snow accumulations... total snow accumulations of 3 to 4 inches
are expected.

* Winds / visibilities... winds gusting to 30 mph will cause patchy
blowing and drifting snow further reducing visibility to a half
mile or less at times in open County.

* Impacts... plan on slippery and snow covered Road conditions.

Precautionary/preparedness actions...

A Winter Weather Advisory for snow means periods of snow will
cause primarily travel difficulties. Be prepared for snow covered
roads and limited visibilities... and use caution while driving.
The latest Road conditions for the state you are calling from can
be obtained by calling 5 1 1.